CYAH

La Grande-4 Airport

ICAO Code CYAH
IATA Code YAH
Name La Grande-4 Airport
Location La Grande-4, Quebec, CA
Elevation 1005 Feet / 306.3 Meters
Latitude 53.75472222
Longitude -73.67527778
METAR CYAH 130300Z AUTO 19006KT 9SM BKN096 18/08 A2961 RMK SLP032 DENSITY ALT 2000FT
Extra information Display Charts
Runway Length Width Surface Elevation
09 5009 ft 150 ft GRAVEL 993 ft
27 5009 ft 150 ft GRAVEL 1002 ft